EW9451 Weather Reports


Display with metric or nautical units.
time (UTC)temp
F
wind
direction
speed
MPH
gust
MPH
rain 1hr
in
rain 24hr
in
rain mn
in
humidity
%
barometer
mb
20260506072557 49 106 0.0 2.0 0.08 0.64 0.16 96 1002.9
20260506072056 49 106 0.0 2.0 0.08 0.64 0.16 95 1002.8
20260506071557 49 113 0.0 2.0 0.08 0.64 0.16 95 1002.8
20260506071055 49 113 1.0 2.0 0.08 0.64 0.16 95 1002.5
20260506070554 49 113 0.0 2.0 0.07 0.63 0.15 95 1002.5
20260506070116 49 163 1.0 2.0 0.06 0.62 0.14 95 1002.8
20260506062050 50 38 0.0 2.0 0.03 0.56 0.08 95 1002.7
20260506061549 50 39 0.0 1.0 0.04 0.56 0.08 95 1003.0
20260506061050 50 39 0.0 1.0 0.04 0.56 0.08 95 1002.9
20260506060547 50 36 0.0 3.0 0.04 0.56 0.08 95 1003.0
20260506051043 51 325 0.0 1.0 0.04 0.52 0.04 95 1003.0
20260506050643 51 325 0.0 2.0 0.04 0.52 0.04 95 1003.0
20260506045040 51 140 1.0 2.0 0.04 0.50 0.02 95 1002.7
20260506044541 51 140 0.0 2.0 0.05 0.50 0.02 95 1002.5
20260506044040 51 140 1.0 2.0 0.05 0.50 0.02 94 1002.3
20260506043542 51 140 0.0 2.0 0.05 0.50 0.02 94 1002.5
20260506043039 51 188 0.0 1.0 0.05 0.50 0.02 94 1001.9
20260506042538 51 188 0.0 1.0 0.06 0.50 0.02 94 1002.1
20260506042037 51 188 0.0 1.0 0.06 0.49 0.01 94 1002.3
20260506041539 51 188 0.0 2.0 0.06 0.48 0.00 94 1002.3
20260506041036 51 188 0.0 2.0 0.07 0.48 0.00 94 1002.8
20260506040534 52 184 0.0 2.0 0.08 0.48 0.48 94 1002.7
20260506040032 52 165 0.0 1.0 0.08 0.47 0.47 94 1002.5
20260506035532 52 165 0.0 1.0 0.07 0.46 0.46 94 1002.4
20260506035034 52 165 0.0 3.0 0.07 0.46 0.46 93 1002.5
20260506034531 52 165 0.0 3.0 0.06 0.45 0.45 93 1002.3
20260506034030 52 111 0.0 2.0 0.06 0.45 0.45 93 1002.1
20260506033533 52 107 0.0 2.0 0.06 0.45 0.45 93 1002.2
20260506033030 52 107 0.0 2.0 0.06 0.45 0.45 92 1002.3
20260506032530 52 107 1.0 2.0 0.05 0.44 0.44 90 1002.2
20260506032027 53 107 0.0 2.0 0.04 0.43 0.43 90 1002.2
20260506031531 53 40 0.0 2.0 0.03 0.42 0.42 89 1002.1
20260506031028 54 178 0.0 3.0 0.02 0.41 0.41 88 1002.1
20260506030525 54 114 0.0 3.0 0.01 0.40 0.40 88 1001.9
20260506030024 54 355 0.0 2.0 0.01 0.39 0.39 87 1001.9
20260506025525 55 355 0.0 3.0 0.02 0.39 0.39 89 1001.7
20260506025020 55 139 1.0 4.0 0.03 0.39 0.39 90 1001.5
20260506024534 55 209 2.0 7.0 0.04 0.39 0.39 87 1001.3
20260506024020 55 312 0.0 7.0 0.04 0.39 0.39 88 1001.4
20260506023520 55 316 2.0 6.0 0.04 0.39 0.39 90 1001.3
20260506023018 56 303 1.0 4.0 0.04 0.39 0.39 93 1001.3
20260506022517 56 306 0.0 5.0 0.04 0.39 0.39 93 1001.3
20260506022018 56 306 1.0 5.0 0.04 0.39 0.39 93 1001.0
20260506021517 56 349 1.0 5.0 0.04 0.39 0.39 93 1000.9
20260506021016 57 313 2.0 11.0 0.04 0.39 0.39 92 1001.1
20260506020516 56 305 5.0 11.0 0.04 0.39 0.39 92 1001.2
20260506020015 57 309 4.0 6.0 0.03 0.38 0.38 92 1001.4
20260506015514 58 318 1.0 3.0 0.02 0.37 0.37 91 1001.2
20260506015012 58 103 0.0 2.0 0.01 0.36 0.36 90 1000.9
20260506014514 58 103 0.0 2.0 0.00 0.35 0.35 90 1000.7
20260506014009 58 197 0.0 2.0 0.00 0.35 0.35 89 1000.5
20260506013507 58 196 0.0 1.0 0.00 0.35 0.35 89 1000.3
20260506013007 58 243 0.0 2.0 0.00 0.35 0.35 88 1000.2
20260506012505 58 167 0.0 2.0 0.00 0.35 0.35 88 1000.0
20260506012005 58 155 0.0 2.0 0.00 0.35 0.35 88 999.9
20260506011503 58 194 0.0 2.0 0.00 0.35 0.35 88 999.8
20260506011004 58 163 0.0 3.0 0.00 0.35 0.35 88 999.7
20260506010506 58 165 1.0 4.0 0.00 0.35 0.35 88 999.7
20260506010004 59 151 2.0 7.0 0.00 0.35 0.35 88 999.7
20260506005504 59 185 1.0 7.0 0.00 0.35 0.35 88 999.8
20260506005003 59 165 2.0 5.0 0.00 0.35 0.35 87 999.8
20260506004503 59 135 2.0 6.0 0.00 0.35 0.35 86 999.7
20260506004001 59 151 2.0 6.0 0.00 0.35 0.35 87 999.6
20260506003600 58 207 2.0 4.0 0.00 0.35 0.35 86 999.5
20260506003100 58 190 1.0 3.0 0.00 0.35 0.35 88 999.3
20260506002559 59 142 0.0 2.0 0.00 0.35 0.35 89 999.1
20260506002057 59 142 0.0 3.0 0.00 0.35 0.35 88 999.1
20260506001602 60 142 1.0 3.0 0.00 0.35 0.35 87 999.1
20260506001057 60 304 0.0 2.0 0.00 0.35 0.35 85 999.1
20260506000557 59 12 0.0 3.0 0.00 0.35 0.35 85 999.0
20260506000119 59 177 1.0 4.0 0.00 0.35 0.35 86 999.0
20260505235557 59 137 1.0 4.0 0.00 0.35 0.35 86 999.1
20260505235055 60 167 2.0 4.0 0.00 0.35 0.35 87 999.0
20260505234555 60 144 1.0 6.0 0.00 0.35 0.35 87 998.9
20260505234055 60 171 2.0 6.0 0.00 0.35 0.35 86 998.9
20260505233555 60 158 1.0 5.0 0.00 0.35 0.35 86 999.0
20260505233059 60 165 1.0 4.0 0.00 0.35 0.35 86 999.1
20260505232554 60 155 0.0 5.0 0.00 0.35 0.35 85 999.1
20260505232055 60 169 0.0 5.0 0.00 0.35 0.35 85 999.0
20260505231606 61 146 0.0 6.0 0.00 0.35 0.35 85 998.8
20260505231054 61 128 0.0 5.0 0.00 0.35 0.35 85 998.7
20260505230553 61 174 1.0 3.0 0.00 0.35 0.35 85 998.5
20260505230105 61 175 1.0 3.0 0.00 0.35 0.35 86 998.4
20260505225556 61 130 0.0 4.0 0.00 0.35 0.35 85 998.4
20260505225052 61 173 0.0 9.0 0.00 0.35 0.35 86 998.3
20260505224552 61 171 1.0 9.0 0.00 0.35 0.35 88 998.4
20260505224051 60 196 2.0 8.0 0.00 0.35 0.35 88 998.4
20260505223556 61 167 0.0 4.0 0.00 0.35 0.35 90 998.4
20260505223051 61 141 2.0 7.0 0.00 0.35 0.35 89 998.5
20260505222551 61 146 2.0 7.0 0.00 0.35 0.35 89 998.6
20260505222050 61 151 1.0 4.0 0.00 0.35 0.35 88 998.6
20260505221558 61 142 1.0 3.0 0.00 0.35 0.35 89 998.4
20260505221050 61 251 1.0 9.0 0.00 0.35 0.35 87 998.3
20260505220550 61 153 2.0 9.0 0.00 0.35 0.35 87 998.2
20260505220049 61 176 0.0 3.0 0.00 0.35 0.35 89 998.3
20260505215549 61 176 1.0 3.0 0.00 0.35 0.35 87 998.2
20260505215048 61 269 0.0 3.0 0.00 0.35 0.35 91 998.3
20260505214548 60 270 0.0 6.0 0.00 0.35 0.35 91 998.0
20260505214051 59 269 1.0 7.0 0.00 0.35 0.35 91 998.0
20260505213548 59 237 1.0 7.0 0.00 0.35 0.35 90 998.0
20260505213049 59 133 0.0 4.0 0.01 0.35 0.35 91 998.1
20260505212548 59 123 1.0 7.0 0.01 0.35 0.35 90 998.1
20260505212047 59 148 2.0 7.0 0.02 0.35 0.35 89 998.2
20260505211547 59 115 3.0 7.0 0.04 0.35 0.35 91 998.1
20260505211047 60 130 1.0 7.0 0.05 0.35 0.35 91 997.9
20260505210548 60 126 2.0 7.0 0.06 0.35 0.35 92 997.7
20260505210047 60 146 1.0 3.0 0.06 0.35 0.35 92 997.7
20260505205548 60 162 1.0 3.0 0.06 0.35 0.35 91 997.5
20260505205046 60 118 1.0 4.0 0.06 0.35 0.35 92 997.6
20260505204551 60 160 2.0 6.0 0.06 0.35 0.35 92 997.6
20260505204046 60 140 2.0 6.0 0.06 0.35 0.35 90 997.7
20260505203546 59 169 1.0 7.0 0.06 0.35 0.35 90 997.7
20260505203055 59 213 2.0 10.0 0.05 0.34 0.34 90 997.7
20260505202545 59 262 1.0 10.0 0.07 0.34 0.34 90 997.8
20260505202045 59 24 2.0 9.0 0.09 0.33 0.33 92 998.1
20260505201547 60 317 2.0 5.0 0.07 0.31 0.31 92 997.9
20260505201044 60 178 2.0 8.0 0.06 0.30 0.30 93 997.7
20260505200545 60 319 3.0 8.0 0.05 0.28 0.28 94 997.6
20260505200046 61 319 3.0 5.0 0.05 0.28 0.28 94 997.1
20260505195546 61 115 1.0 2.0 0.21 0.28 0.28 94 996.1
20260505195047 61 115 0.0 2.0 0.23 0.28 0.28 94 996.1
20260505194554 61 115 0.0 3.0 0.23 0.28 0.28 94 996.0
20260505194043 60 102 1.0 4.0 0.26 0.28 0.28 93 996.1
20260505193541 60 156 1.0 4.0 0.28 0.28 0.28 93 996.2
20260505193042 60 207 1.0 3.0 0.28 0.28 0.28 92 996.9
20260505192541 60 180 1.0 8.0 0.25 0.25 0.25 92 996.9
20260505192040 61 332 3.0 8.0 0.24 0.24 0.24 92 996.9
20260505191553 61 325 4.0 6.0 0.24 0.24 0.24 92 996.6
20260505191040 60 337 2.0 5.0 0.24 0.24 0.24 91 996.6
20260505190541 61 355 2.0 11.0 0.24 0.24 0.24 89 996.7
20260505190041 61 77 3.0 14.0 0.23 0.23 0.23 86 997.1
20260505185540 62 182 7.0 14.0 0.07 0.07 0.07 86 996.7
20260505185037 64 10 3.0 19.0 0.06 0.06 0.06 83 995.0
20260505184537 66 46 2.0 19.0 0.06 0.06 0.06 77 995.2
20260505184034 70 336 2.0 11.0 0.03 0.03 0.03 66 995.3
20260505183533 72 154 1.0 10.0 0.00 0.00 0.00 57 994.8
20260505183034 72 221 3.0 14.0 0.00 0.00 0.00 53 994.7
20260505182533 72 243 5.0 16.0 0.00 0.00 0.00 54 994.6
20260505182032 72 219 4.0 16.0 0.00 0.00 0.00 54 994.6
20260505181537 73 107 4.0 18.0 0.00 0.00 0.00 53 994.7
20260505181032 73 167 6.0 18.0 0.00 0.00 0.00 50 994.5
20260505180533 73 144 4.0 12.0 0.00 0.00 0.00 51 994.8
20260505180043 73 167 5.0 13.0 0.00 0.00 0.00 51 994.8
20260505175531 73 119 7.0 16.0 0.00 0.00 0.00 50 994.9
20260505175031 73 59 6.0 16.0 0.00 0.00 0.00 48 994.8
20260505174533 74 146 4.0 22.0 0.00 0.00 0.00 49 994.8
20260505174034 74 144 7.0 22.0 0.00 0.00 0.00 47 994.8
20260505173533 75 165 7.0 20.0 0.00 0.00 0.00 47 994.9
20260505173030 75 165 6.0 23.0 0.00 0.00 0.00 47 994.9
20260505172529 75 198 6.0 23.0 0.00 0.00 0.00 47 994.8
20260505172029 75 132 6.0 18.0 0.00 0.00 0.00 48 994.9
20260505171529 75 76 8.0 18.0 0.00 0.00 0.00 47 995.0
20260505171028 75 194 8.0 20.0 0.00 0.00 0.00 49 995.0
20260505170528 75 169 11.0 20.0 0.00 0.00 0.00 48 995.0
20260505170028 76 173 7.0 19.0 0.00 0.00 0.00 47 995.0
20260505165526 75 49 5.0 16.0 0.00 0.00 0.00 48 995.2
20260505165025 75 185 5.0 16.0 0.00 0.00 0.00 48 995.3
20260505164523 74 257 4.0 17.0 0.00 0.00 0.00 51 995.4
20260505164024 74 155 5.0 23.0 0.00 0.00 0.00 51 995.5
20260505163522 74 200 8.0 23.0 0.00 0.00 0.00 50 995.9
20260505163021 74 160 5.0 19.0 0.00 0.00 0.00 50 996.2
20260505162519 74 132 6.0 21.0 0.00 0.00 0.00 50 996.3
20260505162022 74 143 9.0 21.0 0.00 0.00 0.00 50 996.2
20260505161518 74 100 7.0 21.0 0.00 0.00 0.00 50 996.4
20260505161017 74 205 4.0 21.0 0.00 0.00 0.00 51 996.5
20260505160517 74 163 7.0 18.0 0.00 0.01 0.00 51 996.5
20260505153010 71 158 7.0 21.0 0.00 0.01 0.00 53 997.1
20260505152509 71 116 7.0 31.0 0.00 0.01 0.00 55 997.2
20260505152010 70 27 7.0 31.0 0.00 0.01 0.00 54 997.4
20260505151512 71 277 9.0 23.0 0.00 0.01 0.00 52 997.2
20260505151009 71 174 5.0 23.0 0.00 0.01 0.00 54 997.3
20260505150507 70 178 8.0 23.0 0.00 0.08 0.00 54 997.2
20260505140600 65 122 5.0 20.0 0.00 0.08 0.00 59 997.8
20260505124552 62 167 3.0 16.0 0.00 0.10 0.00 57 998.5
20260505124049 62 161 6.0 16.0 0.00 0.10 0.00 57 998.4
20260505123542 62 182 7.0 17.0 0.00 0.10 0.00 57 998.4
20260505123053 62 217 7.0 17.0 0.00 0.10 0.00 57 998.5
20260505122542 62 360 5.0 15.0 0.00 0.10 0.00 58 998.5
20260505122041 62 213 5.0 15.0 0.00 0.10 0.00 58 998.4
20260505121612 62 207 6.0 15.0 0.00 0.10 0.00 58 998.6
20260505121040 62 140 4.0 12.0 0.00 0.10 0.00 57 998.4
20260505120540 62 151 5.0 12.0 0.00 0.11 0.00 57 998.3
20260505120040 62 167 3.0 13.0 0.00 0.11 0.00 57 998.3
20260505115540 62 169 5.0 21.0 0.00 0.11 0.00 57 998.2
20260505115039 61 296 4.0 23.0 0.00 0.11 0.00 58 998.2
20260505114537 61 216 5.0 14.0 0.00 0.11 0.00 57 998.1
20260505114038 61 184 6.0 15.0 0.00 0.11 0.00 57 998.1
20260505113536 61 173 4.0 17.0 0.00 0.11 0.00 58 998.3
20260505113038 61 192 4.0 15.0 0.00 0.11 0.00 58 998.2
20260505112537 61 123 5.0 14.0 0.00 0.11 0.00 58 998.5
20260505112034 61 214 5.0 15.0 0.00 0.11 0.00 58 998.4
20260505111539 61 141 5.0 15.0 0.00 0.11 0.00 58 998.4
20260505111036 60 110 4.0 12.0 0.00 0.11 0.00 58 998.3
20260505110534 60 112 5.0 12.0 0.00 0.11 0.00 58 998.3
20260505102030 60 171 4.0 14.0 0.00 0.11 0.00 58 998.1
20260505101530 60 236 5.0 14.0 0.00 0.11 0.00 58 998.2
20260505101028 60 223 4.0 12.0 0.00 0.11 0.00 56 998.4
20260505100530 60 164 4.0 16.0 0.00 0.11 0.00 57 998.4
20260505100037 60 187 5.0 16.0 0.00 0.11 0.00 57 998.4
20260505095530 60 136 3.0 15.0 0.00 0.11 0.00 57 998.5
20260505095029 60 186 5.0 15.0 0.00 0.11 0.00 56 998.4
20260505094528 60 129 6.0 15.0 0.00 0.11 0.00 56 998.4
20260505094027 60 223 5.0 14.0 0.00 0.11 0.00 56 998.4
20260505093526 60 106 5.0 12.0 0.00 0.11 0.00 56 998.4
20260505093029 60 138 4.0 9.0 0.00 0.11 0.00 56 998.5
20260505092525 60 191 2.0 10.0 0.00 0.11 0.00 57 998.5
20260505092023 60 128 4.0 11.0 0.00 0.11 0.00 57 998.5
20260505091532 60 107 4.0 12.0 0.00 0.11 0.00 56 998.2
20260505091023 60 146 3.0 13.0 0.00 0.11 0.00 56 998.3
20260505090524 60 163 4.0 13.0 0.00 0.11 0.00 57 998.3
20260505090022 59 168 4.0 12.0 0.00 0.11 0.00 56 998.5
20260505085522 59 132 5.0 12.0 0.00 0.11 0.00 56 998.4
20260505085024 60 157 2.0 15.0 0.00 0.11 0.00 56 998.7
20260505084524 60 136 4.0 15.0 0.00 0.11 0.00 56 998.6
20260505084020 59 259 6.0 13.0 0.00 0.11 0.00 56 998.6
20260505083521 59 100 5.0 12.0 0.00 0.11 0.00 56 998.8
20260505083032 59 118 2.0 12.0 0.00 0.11 0.00 56 998.8
20260505082519 59 151 3.0 12.0 0.00 0.11 0.00 57 998.9
20260505082118 59 103 5.0 12.0 0.00 0.11 0.00 56 998.7
20260505081521 59 127 4.0 12.0 0.00 0.11 0.00 56 998.7
20260505081019 59 184 3.0 12.0 0.00 0.11 0.00 56 998.8
20260505080517 59 157 4.0 10.0 0.00 0.11 0.00 56 998.8
20260505080018 59 177 3.0 9.0 0.00 0.11 0.00 55 998.9
20260505075517 59 209 4.0 9.0 0.00 0.11 0.00 56 998.7
20260505075016 59 166 4.0 9.0 0.00 0.11 0.00 56 998.6
20260505074516 60 174 4.0 12.0 0.00 0.11 0.00 55 998.6
20260505074019 60 81 4.0 12.0 0.00 0.11 0.00 55 998.6
20260505073515 60 168 4.0 10.0 0.00 0.11 0.00 54 998.6
20260505073014 60 188 4.0 12.0 0.00 0.11 0.00 54 998.6